{"data":{"norad_id":48278,"intl_designator":"2021-036C","name":"STARLINK-2543","alt_names":[],"object_type":"PAYLOAD","status":"ACTIVE","operator":null,"country":"US","launch_date":"2021-04-29","launch_site_code":"AFETR","launch_vehicle":null,"mission":null,"orbit_class":"UNKNOWN","rcs_meters":null,"size_class":null,"mass_kg":null,"dimensions":null,"purposes":["comms"],"wikipedia_slug":null,"has_3d_model":false,"image_url":null,"decayed_at":null,"tle_current":{"epoch":"2026-05-25T01:14:16.663200Z","epoch_age_seconds":63970,"freshness":"FRESH","line1":"1 48278U 21036C   26145.05158175  .00003247  00000+0  11635-3 0  9995","line2":"2 48278  53.1624  29.2266 0001127  91.6234 268.4896 15.31702985280818","mean_motion":15.31702985,"eccentricity":0.0001127,"inclination_deg":53.1624,"raan_deg":29.2266,"arg_perigee_deg":91.6234,"mean_anomaly_deg":268.4896,"bstar":0.00011635,"rev_number":28081,"period_min":94.013004747131,"perigee_km":469.95922967588,"apogee_km":471.50296454497,"semimajor_km":6848.8680971104,"source":"CELESTRAK","updated_at":"2026-05-25T13:38:16.671780Z"}}}